Skip Page Navigation
NASA JPL Caltech
NASA Logo - Jet Propulsion Laboratory + View the NASA Portal
+ Center for Near-Earth Object Studies
JPL Home Earth Solar System Stars & Galaxies Technology
JPL Solar System Dynamics
BODIES ORBITS EPHEMERIDES TOOLS PHYSICAL DATA DISCOVERY FAQ SITE MAP
IMPORTANT: The SSD Announcement email list is now available. Major changes are coming in the near future, including possible hostname and/or URL changes. To be notified of such changes, subscribe to this email list.

Please visit this page for more details.


JPL Small-Body Database Browser
Search: [ help ]  
212679 (2006 VK67)
Classification: Outer Main-belt Asteroid          SPK-ID: 2212679
Ephemeris | Orbit Diagram | Orbital Elements | Mission Design | Physical Parameters | Discovery Circumstances | Close-Approach Data ]

[ show orbit diagram ]
Orbital Elements at Epoch 2458600.5 (2019-Apr-27.0) TDB
Reference: JPL 16 (heliocentric ecliptic J2000)
 Element Value Uncertainty (1-sigma)   Units 
e .07720281373715601 5.9328e-08  
a 3.22921423977335 4.3728e-08 au
q 2.979909814302756 1.8772e-07 au
i 3.980684342863415 6.8044e-06 deg
node 66.05972019837503 8.6364e-05 deg
peri 188.636382439445 9.6024e-05 deg
M 223.999699265303 4.1053e-05 deg
tp 2459401.220750296986
(2021-Jul-05.72075030)
0.000242 TDB
period 2119.550240328057
5.80
4.3052e-05
1.179e-07
d
yr
n .1698473540048197 3.4499e-09 deg/d
Q 3.478518665243944 4.7104e-08 au
  Orbit Determination Parameters
   # obs. used (total)      338  
   data-arc span      5761 days (15.77 yr)  
   first obs. used      2003-04-08  
   last obs. used      2019-01-15  
   planetary ephem.      DE431  
   SB-pert. ephem.      SB431-N16  
   condition code      0  
   norm. resid. RMS      .51497  
   source      ORB  
   producer      Otto Matic  
   solution date      2019-Jul-14 08:35:29  

Additional Information
 Earth MOID = 1.96498 au 
 Jupiter MOID = 1.54901 au 
 T_jup = 3.178 
[ show covariance matrix ]

Ephemeris | Orbit Diagram | Orbital Elements | Mission Design | Physical Parameters | Discovery Circumstances | Close-Approach Data ]

Physical Parameter Table
Parameter Symbol Value Units Sigma Reference Notes
absolute magnitude H 15.2   n/a MPO427252  
diameter diameter 5.278 km 0.328 urn:nasa:pds:neowise_diameters_albedos::2.0[mainbelt] (http://adsabs.harvard.edu/abs/2011ApJ...741...68M)  
geometric albedo albedo 0.048   0.010 urn:nasa:pds:neowise_diameters_albedos::2.0[mainbelt] (http://adsabs.harvard.edu/abs/2011ApJ...741...68M)  

212679 (2006 VK67)          Discovered 2006-Nov-11 by Spacewatch at Kitt Peak
Reference: 20090409/Numbers.arcLast Updated: 2009-04-10

[ show close-approach data ]
Alternate Designations
 2006 VK67 = 2005 QR26 
Ephemeris | Orbit Diagram | Orbital Elements | Mission Design | Physical Parameters | Discovery Circumstances | Close-Approach Data ]
ABOUT SSD CREDITS/AWARDS PRIVACY/COPYRIGHT GLOSSARY LINKS
FirstGov
(server date/time)  
NASA Home Page
Site Manager:   Ryan S. Park
Webmaster  Alan B. Chamberlin